Location: Breitenfeld
(46.8500°N, 15.6333°E)
Time: 08:51:18
(UTC+00:00)

CARTOSAT-1 - Pass Details

Date: 09 April 2020
Orbit: 616 x 619 km, 97.8° (Epoch: 01 June)

Event Time Altitude Azimuth Distance (km) Brightness Sun altitude
Exits shadow 20:39:33 59° 334° (NNW) 721 4.0 -27.0°
Drops below altitude 10° 20:43:06 10° 345° (NNW) 1,996 7.0 -27.4°
Sets 20:45:18 0° 347° (NNW) 2,907 8.0 -27.6°
